Location: Aressy
(43.2833°N, 0.3167°W)
Time: 21:47:58
(UTC+00:00)

SJ 16-02 - Pass Details

Date: 28 January 2021
Orbit: 606 x 616 km, 75.0° (Epoch: 03 March)

Event Time Altitude Azimuth Distance (km) Brightness Sun altitude
Rises 17:28:40 0° 210° (SSW) 2,861 5.7 -4.3°
Reaches altitude 10° 17:30:56 10° 215° (SW) 1,960 4.9 -4.7°
Maximum altitude 17:35:13 52° 292° (WNW) 762 2.2 -5.4°
Drops below altitude 10° 17:39:30 10° 9° (N) 1,969 3.7 -6.1°
Sets 17:41:48 0° 15° (NNE) 2,876 4.5 -6.5°
